Regional Weather Roundup
Issued by NWS

Home | Current Version | Previous Version | Text Only | Print | Product List | Glossary Off
Versions: 1 2 3 4 5 6 7 8 9 10 11 12 13 14 15 16 17 18 19 20 21 22 23 24 25 26 27 28 29 30 31 32 33 34 35 36 37 38 39 40 41 42 43 44 45 46 47 48 49 50

000
ASUS43 KDTX 241001
RWRMI
MICHIGAN HOURLY REGIONAL WEATHER ROUNDUP
NATIONAL WEATHER SERVICE DETROIT/PONTIAC MI
600 AM EDT WED MAY 24 2017

NOTE: "FAIR" INDICATES FEW OR NO CLOUDS BELOW 12,000 FEET WITH NO
SIGNIFICANT WEATHER AND/OR OBSTRUCTION TO VISIBILITY.

MIZ047>049-052>055-059>063-066>070-074>076-081>083-241100-
SOUTHEAST LOWER MICHIGAN

CITY           SKY/WX    TMP DP  RH WIND       PRES   REMARKS
ADRIAN         CLOUDY    55  52  89 E8        29.60S
ALMA           CLOUDY    55  54  95 N5        29.65S
ANN ARBOR      CLEAR     55  52  89 NE7       29.60S
BAD AXE        CLOUDY    51  50  94 NE3       29.68F
CARO           MOCLDY    54  52  95 NE5       29.65F
DETROIT CITY   PTCLDY    55  50  83 NE6       29.62F
DETROIT        CLOUDY    58  50  75 NE7       29.61F
FLINT          MOCLDY    54  51  90 NE6       29.63F
GROSSE ILE     CLEAR     55  51  85 NE8       29.60S
HILLSDALE      MOCLDY    54  50  87 NE5       29.59S
HOWELL         PTCLDY    53  50  87 NE3       29.62S

CITY           SKY/WX    TMP DP  RH WIND       PRES   REMARKS
JACKSON        PTCLDY    53  51  93 E3        29.60F
LAMBERTVILLE   MOCLDY    56  51  82 CALM      29.59S
LANSING        MOCLDY    55  50  83 NE12      29.62F
LAPEER         FAIR      55  51  89 E6        29.64F
MASON          CLEAR     53  52  97 NE5       29.61F
MONROE         PTCLDY    57  50  78 NE5       29.59S
MT. CLEMENS    MOCLDY    52  52 100 N3        29.61F
PONTIAC        MOCLDY    55  50  83 NE5       29.61F
PORT HOPE        N/A     52  49  89 E7        29.67F
PORT HURON     PTCLDY    52  48  87 CALM      29.64S
TRI CITIES     CLOUDY    55  55 100 NE14      29.66F FOG
MIDLAND        CLOUDY    55  55  97 NE5       29.66F FOG
TROY           PTCLDY    56  50  80 NE7       29.64S
SAGINAW HB     CLOUDY    54  50  87 NE7       29.65F
$$
MIZ043>046-050>051-056>058-064>065-071>073-077>080-241100-
SOUTHWEST LOWER MICHIGAN

CITY           SKY/WX    TMP DP  RH WIND       PRES   REMARKS
BATTLE CREEK   CLOUDY    56  53  90 NE8       29.60F
BENTON HARBOR  CLOUDY    57  52  83 E7        29.58S
BIG RAPIDS     CLOUDY    54  52  92 NE5       29.66S
COLDWATER      PTCLDY    55  53  95 E5        29.58F
FREMONT        LGT RAIN  54  54  98 N6        29.64F
HOLLAND        CLOUDY    57  53  86 VRB5      29.61F
GRAND RAPIDS   LGT RAIN  56  54  93 E9        29.61F
IONIA          MOCLDY    55  53  93 NE8       29.62F
KALAMAZOO      PTCLDY    56  51  84 NE5       29.59F
LUDINGTON      DRIZZLE   52  52 100 CALM      29.66S
MARSHALL       CLOUDY    53  53  98 NE3       29.59S
MOUNT PLEASANT CLOUDY    54  53  97 NE7       29.66S FOG
MUSKEGON       CLOUDY    56  54  93 NE9       29.63F
SOUTH HAVEN    CLOUDY    56  55  94 E6        29.58F
$$
MIZ016>042-241100-
NORTHERN LOWER MICHIGAN

CITY           SKY/WX    TMP DP  RH WIND       PRES   REMARKS
ALPENA         CLOUDY    48  48 100 CALM      29.73F FOG
BEAVER ISLAND  RAIN      47  46  96 E7        29.73S
BELLAIRE       CLOUDY    51  49  93 CALM      29.70S
CADILLAC       DRIZZLE   52  51  97 NE5       29.67F
CHARLEVOIX     LGT RAIN  50  49  99 E6        29.74S
GAYLORD        LGT RAIN  52  49  89 NE7       29.70F VSB 1/4
GRAYLING       CLOUDY    52  52  99 NE3       29.71S VSB 1
HARBOR SPRINGS DRIZZLE   48  48  99 E7        29.72S
HOUGHTON LAKE  FOG       53  52  96 NE5       29.70R VSB 1/2
MANISTEE       LGT RAIN  53  52  96 E7        29.67S
OSCODA         CLOUDY    51  50  97 NE7       29.70F FOG
PELLSTON       RAIN      49  46  90 E3        29.74R FOG
ROGERS CITY    CLOUDY    48  47  96 N5        29.75R FOG
TRAVERSE CITY  LGT RAIN  50  49  96 CALM      29.69S
$$
MIZ007>008-015-241100-
EASTERN UPPER MICHIGAN

CITY           SKY/WX    TMP DP  RH WIND       PRES   REMARKS
KINROSS        LGT RAIN  49  47  93 E9        29.75R
MACKINAC ISLAN LGT RAIN  48  48 100 E7        29.74S
NEWBERRY       LGT RAIN  46  45  97 NE5       29.74S
S. S. MARIE    LGT RAIN  51  46  83 E7        29.75R
MUNISING         N/A     42  41  96 NW8       29.76S
$$
MIZ004>006-011>014-085-241100-
CENTRAL UPPER MICHIGAN

CITY           SKY/WX    TMP DP  RH WIND       PRES   REMARKS
MANISTIQUE     CLOUDY    47  44  90 N7        29.72F
ESCANABA       LGT RAIN  46  45  96 N7        29.73S
MENOMINEE      LGT RAIN  47  46  97 N7        29.72S
SAWYER-GWINN   LGT RAIN  42  41  96 N10       29.76S
$$
MIZ001>003-009>011-084-241100-
WESTERN UPPER MICHIGAN

CITY           SKY/WX    TMP DP  RH WIND       PRES   REMARKS
IRON MOUNTAIN  LGT RAIN  47  43  86 N10       29.73S
HOUGHTON       CLOUDY    48  41  76 NE6       29.80S
COPPER HARBOR    N/A     44  41  89 N3        29.82S
IRONWOOD       LGT RAIN  43  42  97 CALM      29.81S
$$

ABBREVIATIONS USED IN REMARKS
   TC - TEMPERATURE IN CELSIUS
  WCI - WIND CHILL INDEX
   HX - HEAT INDEX
  VSB - VISIBILITY





USA.gov is the U.S. government's official web portal to all federal, state and local government web resources and services.